• In Hungary
  • List of Countries
  • For 7 days
  • Water Temperature
  • Satellite Maps
  • Weather Map
  • News
  • Weather Widgets
  • user-avatar
    Login

    Hourly Weather Oslo

    Today, 16 July, Monday

    Time Temperature Precipitation Wind Pressure Humidity
    00:00 +15°C° 0 mm 1 mps 753 mmHg 89%
    01:00 +13°C° 0 mm 0 mps 753 mmHg 93%
    02:00 +13°C° 0 mm 0 mps 753 mmHg 94%
    03:00 +13°C° 0 mm 0 mps 753 mmHg 94%
    04:00 +13°C° 0 mm 0 mps 753 mmHg 94%
    05:00 +15°C° 0 mm 0 mps 754 mmHg 85%
    06:00 +17°C° 0 mm 0 mps 754 mmHg 76%
    07:00 +19°C° 0 mm 0 mps 754 mmHg 70%
    08:00 +23°C° 0 mm 1 mps 754 mmHg 60%
    09:00 +25°C° 0 mm 1 mps 754 mmHg 51%
    10:00 +27°C° 0 mm 2 mps 754 mmHg 42%
    11:00 +28°C° 0 mm 2 mps 753 mmHg 36%
    12:00 +29°C° 0 mm 2 mps 753 mmHg 32%
    13:00 +30°C° 0 mm 3 mps 753 mmHg 29%
    14:00 +30°C° 0 mm 3 mps 753 mmHg 28%
    15:00 +30°C° 0 mm 3 mps 753 mmHg 28%
    16:00 +30°C° 0 mm 3 mps 752 mmHg 27%
    17:00 +29°C° 0 mm 3 mps 752 mmHg 31%
    18:00 +28°C° 0 mm 2 mps 752 mmHg 36%
    19:00 +26°C° 0 mm 2 mps 752 mmHg 40%
    20:00 +24°C° 0 mm 1 mps 752 mmHg 48%
    21:00 +21°C° 0 mm 1 mps 753 mmHg 56%
    22:00 +16°C° 0 mm 0 mps 753 mmHg 65%
    23:00 +16°C° 0 mm 0 mps 753 mmHg 64%

    Tomorrow, 17 July, Tuesday

    Time Temperature Precipitation Wind Pressure Humidity
    00:00 +16°C° 0 mm 1 mps 753 mmHg 64%
    01:00 +16°C° 0 mm 1 mps 753 mmHg 64%
    02:00 +16°C° 0.1 mm 1 mps 753 mmHg 64%
    03:00 +16°C° 0.1 mm 1 mps 753 mmHg 64%
    04:00 +18°C° 0.1 mm 1 mps 753 mmHg 64%
    05:00 +19°C° 0.1 mm 1 mps 753 mmHg 61%
    06:00 +20°C° 0.1 mm 1 mps 753 mmHg 59%
    07:00 +22°C° 0.1 mm 1 mps 753 mmHg 56%
    08:00 +24°C° 0.1 mm 1 mps 753 mmHg 53%
    09:00 +25°C° 0.1 mm 1 mps 753 mmHg 50%
    10:00 +27°C° 0.1 mm 1 mps 753 mmHg 46%
    11:00 +28°C° 0 mm 1 mps 753 mmHg 42%
    12:00 +30°C° 0 mm 2 mps 753 mmHg 38%
    13:00 +31°C° 0 mm 2 mps 753 mmHg 34%
    14:00 +31°C° 0 mm 2 mps 752 mmHg 34%
    15:00 +31°C° 0 mm 2 mps 752 mmHg 33%
    16:00 +31°C° 0 mm 2 mps 752 mmHg 33%
    17:00 +30°C° 0 mm 2 mps 752 mmHg 38%
    18:00 +29°C° 0 mm 1 mps 752 mmHg 43%
    19:00 +28°C° 0 mm 1 mps 752 mmHg 48%
    20:00 +26°C° 0 mm 1 mps 752 mmHg 51%
    21:00 +25°C° 0 mm 1 mps 752 mmHg 55%
    22:00 +21°C° 0 mm 0 mps 752 mmHg 59%
    23:00 +22°C° 0.2 mm 1 mps 752 mmHg 64%

    Day after tomorrow, 18 July, Wednesday

    Time Temperature Precipitation Wind Pressure Humidity
    00:00 +22°C° 0.2 mm 1 mps 752 mmHg 69%
    01:00 +21°C° 0.2 mm 1 mps 752 mmHg 74%
    02:00 +20°C° 0.3 mm 1 mps 752 mmHg 77%
    03:00 +20°C° 0.3 mm 1 mps 752 mmHg 81%
    04:00 +19°C° 0.3 mm 1 mps 752 mmHg 85%
    05:00 +20°C° 0 mm 1 mps 752 mmHg 84%
    06:00 +20°C° 0 mm 1 mps 752 mmHg 82%
    07:00 +21°C° 0 mm 1 mps 752 mmHg 81%
    08:00 +22°C° 0.3 mm 1 mps 752 mmHg 80%
    09:00 +22°C° 0.3 mm 1 mps 752 mmHg 79%
    10:00 +22°C° 0.3 mm 1 mps 751 mmHg 78%
    11:00 +22°C° 0.8 mm 1 mps 751 mmHg 82%
    12:00 +22°C° 0.8 mm 1 mps 751 mmHg 85%
    13:00 +22°C° 0.8 mm 1 mps 751 mmHg 88%
    14:00 +21°C° 2.3 mm 1 mps 751 mmHg 91%
    15:00 +20°C° 2.3 mm 1 mps 751 mmHg 93%
    16:00 +20°C° 2.3 mm 1 mps 751 mmHg 96%
    17:00 +20°C° 1.8 mm 1 mps 751 mmHg 96%
    18:00 +19°C° 1.8 mm 1 mps 751 mmHg 96%
    19:00 +19°C° 1.8 mm 1 mps 751 mmHg 97%
    20:00 +18°C° 0.4 mm 1 mps 751 mmHg 97%
    21:00 +18°C° 0.4 mm 1 mps 751 mmHg 97%
    22:00 +16°C° 0.4 mm 0 mps 751 mmHg 98%
    23:00 +15°C° 0 mm 0 mps 751 mmHg 98%

    19 July, Thursday

    Time Temperature Precipitation Wind Pressure Humidity
    00:00 +15°C° 0 mm 0 mps 751 mmHg 98%
    01:00 +15°C° 0 mm 1 mps 751 mmHg 98%
    02:00 +15°C° 0 mm 1 mps 751 mmHg 98%
    03:00 +15°C° 0 mm 1 mps 751 mmHg 97%
    04:00 +15°C° 0 mm 1 mps 751 mmHg 97%
    05:00 +16°C° 0 mm 1 mps 752 mmHg 95%
    06:00 +18°C° 0 mm 1 mps 752 mmHg 92%
    07:00 +19°C° 0 mm 1 mps 752 mmHg 89%
    08:00 +22°C° 0 mm 1 mps 752 mmHg 78%
    09:00 +24°C° 0 mm 1 mps 752 mmHg 68%
    10:00 +26°C° 0 mm 1 mps 752 mmHg 57%
    11:00 +27°C° 0.1 mm 1 mps 752 mmHg 54%
    12:00 +28°C° 0.1 mm 1 mps 752 mmHg 52%
    13:00 +29°C° 0.1 mm 1 mps 752 mmHg 50%
    14:00 +29°C° 0.4 mm 1 mps 751 mmHg 52%
    15:00 +28°C° 0.4 mm 1 mps 751 mmHg 54%
    16:00 +28°C° 0.4 mm 2 mps 751 mmHg 56%
    17:00 +27°C° 0.5 mm 2 mps 751 mmHg 62%
    18:00 +26°C° 0.5 mm 2 mps 751 mmHg 68%
    19:00 +25°C° 0.5 mm 2 mps 751 mmHg 74%
    20:00 +23°C° 0.3 mm 1 mps 751 mmHg 79%
    21:00 +21°C° 0.3 mm 1 mps 751 mmHg 85%
    22:00 +17°C° 0.3 mm 0 mps 751 mmHg 91%
    23:00 +17°C° 0.2 mm 0 mps 751 mmHg 92%

    20 July, Friday

    Time Temperature Precipitation Wind Pressure Humidity
    00:00 +16°C° 0.2 mm 0 mps 751 mmHg 93%
    01:00 +16°C° 0.2 mm 0 mps 751 mmHg 95%
    02:00 +16°C° 0.2 mm 0 mps 751 mmHg 95%
    03:00 +15°C° 0.2 mm 0 mps 750 mmHg 96%
    04:00 +15°C° 0.2 mm 0 mps 750 mmHg 96%
    05:00 +17°C° 0.1 mm 0 mps 750 mmHg 92%
    06:00 +18°C° 0.1 mm 0 mps 750 mmHg 89%
    07:00 +19°C° 0.1 mm 0 mps 750 mmHg 85%
    08:00 +23°C° 0.3 mm 1 mps 749 mmHg 78%
    09:00 +24°C° 0.3 mm 1 mps 749 mmHg 71%
    10:00 +26°C° 0.3 mm 2 mps 749 mmHg 64%
    11:00 +26°C° 0.3 mm 2 mps 749 mmHg 59%
    12:00 +27°C° 0.3 mm 2 mps 748 mmHg 55%
    13:00 +27°C° 0.3 mm 3 mps 748 mmHg 51%
    14:00 +27°C° 0.3 mm 3 mps 748 mmHg 48%
    15:00 +27°C° 0.3 mm 3 mps 748 mmHg 46%
    16:00 +27°C° 0.3 mm 3 mps 747 mmHg 43%
    17:00 +26°C° 0.1 mm 3 mps 747 mmHg 45%
    18:00 +25°C° 0.1 mm 2 mps 747 mmHg 48%
    19:00 +24°C° 0.1 mm 2 mps 747 mmHg 50%
    20:00 +20°C° 0 mm 2 mps 747 mmHg 60%
    21:00 +18°C° 0 mm 1 mps 747 mmHg 69%
    22:00 +15°C° 0 mm 1 mps 747 mmHg 79%
    23:00 +14°C° 0 mm 1 mps 747 mmHg 82%

    21 July, Saturday

    Time Temperature Precipitation Wind Pressure Humidity
    00:00 +13°C° 0 mm 1 mps 747 mmHg 86%
    01:00 +11°C° 0 mm 0 mps 747 mmHg 89%
    02:00 +12°C° 0 mm 1 mps 747 mmHg 90%
    03:00 +12°C° 0 mm 1 mps 746 mmHg 91%
    04:00 +11°C° 0 mm 1 mps 746 mmHg 92%
    05:00 +13°C° 0 mm 1 mps 746 mmHg 85%
    06:00 +15°C° 0 mm 1 mps 746 mmHg 78%
    07:00 +18°C° 0 mm 1 mps 746 mmHg 70%
    08:00 +20°C° 0 mm 1 mps 746 mmHg 64%
    09:00 +21°C° 0 mm 2 mps 746 mmHg 57%
    10:00 +22°C° 0 mm 3 mps 746 mmHg 51%
    11:00 +24°C° 0 mm 3 mps 746 mmHg 48%
    12:00 +23°C° 0 mm 4 mps 746 mmHg 45%
    13:00 +25°C° 0 mm 4 mps 746 mmHg 42%
    14:00 +23°C° 0 mm 4 mps 746 mmHg 45%
    15:00 +23°C° 0 mm 4 mps 746 mmHg 47%
    16:00 +23°C° 0 mm 5 mps 745 mmHg 50%
    17:00 +22°C° 0 mm 4 mps 745 mmHg 55%
    18:00 +21°C° 0 mm 4 mps 745 mmHg 60%
    19:00 +20°C° 0 mm 4 mps 746 mmHg 66%
    20:00 +19°C° 0 mm 3 mps 746 mmHg 74%
    21:00 +17°C° 0 mm 3 mps 746 mmHg 83%
    22:00 +15°C° 0 mm 2 mps 746 mmHg 92%
    23:00 +15°C° 0 mm 2 mps 746 mmHg 93%
    Show more